EW8563 Weather Reports


Display with metric or nautical units.
time (UTC)temp
F
wind
direction
speed
MPH
gust
MPH
rain 1hr
in
rain 24hr
in
rain mn
in
humidity
%
barometer
mb
20260506011036 60 303 2.0 5.0 0.00 0.00 0.00 72 1013.8
20260506010534 60 303 3.0 6.0 0.00 0.00 0.00 71 1013.8
20260506010032 60 282 2.0 6.0 0.00 0.00 0.00 71 1013.8
20260506005534 60 306 3.0 4.0 0.00 0.00 0.00 71 1013.7
20260506005033 60 299 3.0 4.0 0.00 0.00 0.00 71 1013.8
20260506004531 60 321 2.0 4.0 0.00 0.00 0.00 71 1013.8
20260506004031 60 293 3.0 4.0 0.00 0.00 0.00 71 1013.8
20260506003532 60 262 1.0 4.0 0.00 0.00 0.00 71 1013.9
20260506003031 60 313 1.0 4.0 0.00 0.00 0.00 71 1013.7
20260506002532 60 292 1.0 6.0 0.00 0.00 0.00 71 1013.7
20260506002032 60 290 3.0 6.0 0.00 0.00 0.00 70 1013.6
20260506001758 60 307 3.0 5.0 0.00 0.00 0.00 71 1013.6
20260506001513 60 299 4.0 5.0 0.00 0.00 0.00 70 1013.6
20260506000530 60 296 3.0 7.0 0.00 0.00 0.00 70 1013.5
20260506000249 61 278 5.0 7.0 0.00 0.00 0.00 70 1013.5
20260506000027 61 289 5.0 7.0 0.00 0.00 0.00 70 1013.5
20260505235031 61 296 3.0 6.0 0.00 0.00 0.00 71 1013.4
20260505234530 60 298 4.0 7.0 0.00 0.00 0.00 71 1013.5
20260505234028 60 300 4.0 10.0 0.00 0.00 0.00 71 1013.5
20260505233747 60 299 2.0 10.0 0.00 0.00 0.00 71 1013.5
20260505233027 60 292 6.0 9.0 0.00 0.00 0.00 70 1013.5
20260505232526 60 309 6.0 11.0 0.00 0.00 0.00 70 1013.6
20260505232026 60 316 4.0 11.0 0.00 0.00 0.00 70 1013.6
20260505231525 61 286 3.0 7.0 0.00 0.00 0.00 70 1013.7
20260505231023 61 298 2.0 5.0 0.00 0.00 0.00 70 1013.7
20260505230523 61 321 2.0 6.0 0.00 0.00 0.00 70 1013.7
20260505230021 61 265 4.0 6.0 0.00 0.00 0.00 70 1013.6
20260505225521 61 296 3.0 5.0 0.00 0.00 0.00 70 1013.6
20260505225020 60 279 3.0 6.0 0.00 0.00 0.00 71 1013.6
20260505225012 60 286 5.0 6.0 0.00 0.00 0.00 71 1013.7
20260505224016 60 285 2.0 7.0 0.00 0.00 0.00 71 1013.7
20260505223517 60 298 4.0 9.0 0.00 0.00 0.00 71 1013.7
20260505223017 60 271 6.0 11.0 0.00 0.00 0.00 71 1013.7
20260505222517 60 275 6.0 11.0 0.00 0.00 0.00 71 1013.7
20260505222014 61 290 6.0 11.0 0.00 0.00 0.00 71 1013.7
20260505221512 60 279 6.0 10.0 0.00 0.00 0.00 71 1013.7
20260505221010 60 305 5.0 9.0 0.00 0.00 0.00 72 1013.7
20260505220511 60 283 3.0 10.0 0.00 0.00 0.00 72 1013.7
20260505220009 60 250 6.0 10.0 0.00 0.00 0.00 72 1013.8
20260505215509 61 283 6.0 10.0 0.00 0.00 0.00 72 1013.9
20260505215010 61 299 2.0 9.0 0.00 0.00 0.00 72 1013.9
20260505214507 61 292 4.0 7.0 0.00 0.00 0.00 72 1013.9
20260505214007 61 302 4.0 9.0 0.00 0.00 0.00 72 1013.9
20260505213730 61 271 6.0 9.0 0.00 0.00 0.00 72 1013.9
20260505213003 61 306 3.0 9.0 0.00 0.00 0.00 72 1013.9
20260505212506 61 269 5.0 9.0 0.00 0.00 0.00 73 1014.0
20260505212004 60 289 3.0 10.0 0.00 0.00 0.00 73 1014.1
20260505211505 60 293 3.0 10.0 0.00 0.00 0.00 72 1014.1
20260505211006 60 258 4.0 9.0 0.00 0.00 0.00 73 1014.1
20260505210730 60 329 6.0 9.0 0.00 0.00 0.00 75 1014.0
20260505210226 60 261 4.0 7.0 0.00 0.00 0.00 75 1014.0
20260505205503 60 317 3.0 7.0 0.00 0.00 0.00 76 1014.0
20260505205003 60 295 4.0 7.0 0.00 0.00 0.00 76 1014.0
20260505204503 59 264 3.0 5.0 0.00 0.00 0.00 77 1014.0
20260505204225 59 290 1.0 4.0 0.00 0.00 0.00 77 1014.0
20260505203502 59 300 3.0 4.0 0.00 0.00 0.00 78 1014.0
20260505203003 59 255 1.0 4.0 0.00 0.00 0.00 79 1014.1
20260505202503 58 207 2.0 4.0 0.00 0.00 0.00 80 1014.2
20260505202004 58 281 1.0 5.0 0.00 0.00 0.00 80 1014.2
20260505201504 57 276 2.0 5.0 0.00 0.00 0.00 80 1014.2
20260505201003 57 330 2.0 5.0 0.00 0.00 0.00 80 1014.2
20260505200724 57 314 2.0 6.0 0.00 0.00 0.00 80 1014.3
20260505200004 57 281 3.0 7.0 0.00 0.00 0.00 80 1014.4
20260505195504 57 310 3.0 7.0 0.00 0.00 0.00 80 1014.4
20260505195227 57 300 4.0 7.0 0.00 0.00 0.00 79 1014.4
20260505194503 58 296 4.0 6.0 0.00 0.00 0.00 80 1014.4
20260505194004 58 283 5.0 6.0 0.00 0.00 0.00 80 1014.4
20260505193503 58 271 4.0 6.0 0.00 0.00 0.00 81 1014.4
20260505193003 58 271 4.0 7.0 0.00 0.00 0.00 82 1014.4
20260505192504 57 292 4.0 7.0 0.00 0.00 0.00 82 1014.5
20260505192003 57 278 2.0 5.0 0.00 0.00 0.00 83 1014.4
20260505191505 57 295 3.0 5.0 0.00 0.00 0.00 83 1014.4
20260505191002 56 334 3.0 6.0 0.00 0.00 0.00 83 1014.3
20260505190725 56 295 4.0 7.0 0.00 0.00 0.00 83 1014.4
20260505190004 57 299 5.0 7.0 0.00 0.00 0.00 83 1014.3
20260505185503 57 336 3.0 6.0 0.00 0.00 0.00 84 1014.3
20260505185003 57 299 3.0 5.0 0.00 0.00 0.00 85 1014.2
20260505184504 56 221 1.0 4.0 0.00 0.00 0.00 86 1014.3
20260505184225 56 305 0.0 5.0 0.00 0.00 0.00 86 1014.3
20260505183503 55 296 2.0 5.0 0.00 0.00 0.00 88 1014.4
20260505183003 55 303 1.0 3.0 0.00 0.00 0.00 87 1014.4
20260505182503 54 302 1.0 3.0 0.00 0.00 0.00 87 1014.2
20260505182002 54 300 1.0 4.0 0.00 0.00 0.00 87 1014.3
20260505181503 54 289 2.0 4.0 0.00 0.00 0.00 86 1014.3
20260505181003 55 295 3.0 6.0 0.00 0.00 0.00 86 1014.4
20260505180504 55 302 3.0 6.0 0.00 0.00 0.00 86 1014.3
20260505180002 55 306 3.0 5.0 0.00 0.00 0.00 86 1014.3
20260505175502 55 326 3.0 6.0 0.00 0.00 0.00 86 1014.2
20260505174959 55 337 4.0 6.0 0.00 0.00 0.00 85 1014.1
20260505174716 54 350 2.0 5.0 0.00 0.00 0.00 85 1014.0
20260505173952 54 312 4.0 5.0 0.00 0.00 0.00 85 1014.0
20260505173454 54 324 1.0 4.0 0.00 0.00 0.00 84 1013.9
20260505172953 54 320 2.0 4.0 0.00 0.00 0.00 84 1013.9
20260505172450 54 314 1.0 4.0 0.00 0.00 0.00 84 1013.8
20260505171951 54 309 2.0 4.0 0.00 0.00 0.00 83 1013.7
20260505171450 54 305 2.0 6.0 0.00 0.00 0.00 83 1013.7
20260505170947 54 300 3.0 6.0 0.00 0.00 0.00 83 1013.7
20260505170446 54 296 2.0 4.0 0.00 0.00 0.00 83 1013.7
20260505165946 54 321 1.0 3.0 0.00 0.00 0.00 84 1013.7
20260505165707 54 329 1.0 3.0 0.00 0.00 0.00 84 1013.7
20260505164946 54 292 1.0 4.0 0.00 0.00 0.00 84 1013.7
20260505164445 54 290 2.0 5.0 0.00 0.00 0.00 84 1013.7
20260505163945 54 290 2.0 5.0 0.00 0.00 0.00 84 1013.7
20260505163446 54 286 4.0 5.0 0.00 0.00 0.00 84 1013.6
20260505162947 54 278 3.0 5.0 0.00 0.00 0.00 84 1013.6
20260505162445 54 293 2.0 5.0 0.00 0.00 0.00 85 1013.6
20260505161945 54 296 3.0 5.0 0.00 0.00 0.00 85 1013.5
20260505161445 54 257 2.0 3.0 0.00 0.00 0.00 85 1013.4
20260505160944 54 248 1.0 3.0 0.00 0.00 0.00 86 1013.5
20260505160446 53 250 0.0 2.0 0.00 0.00 0.00 86 1013.3
20260505152706 53 161 0.0 0.0 0.00 0.00 0.00 87 1013.3
20260505152211 53 161 0.0 2.0 0.00 0.00 0.00 87 1013.3
20260505151441 53 162 0.0 2.0 0.00 0.00 0.00 87 1013.2
20260505151436 53 162 0.0 2.0 0.00 0.00 0.00 87 1013.2
20260505150437 53 161 0.0 1.0 0.00 0.00 0.00 87 1013.1
20260505140432 52 326 2.0 3.0 0.00 0.00 0.00 87 1012.7
20260505124931 52 324 0.0 2.0 0.00 0.00 0.00 86 1012.5
20260505124432 52 324 0.0 2.0 0.00 0.00 0.00 86 1012.5
20260505123933 52 324 0.0 0.0 0.00 0.00 0.00 86 1012.6
20260505123433 52 324 0.0 0.0 0.00 0.00 0.00 86 1012.5
20260505122933 52 324 0.0 0.0 0.00 0.00 0.00 86 1012.5
20260505122432 52 324 0.0 0.0 0.00 0.00 0.00 85 1012.6
20260505121934 52 324 0.0 0.0 0.00 0.00 0.00 85 1012.7
20260505121433 52 324 0.0 0.0 0.00 0.00 0.00 85 1012.6
20260505120933 52 324 0.0 1.0 0.00 0.00 0.00 85 1012.6
20260505120431 52 324 0.0 1.0 0.00 0.00 0.00 85 1012.7
20260505115930 52 324 0.0 1.0 0.00 0.00 0.00 85 1012.7
20260505115430 52 324 0.0 1.0 0.00 0.00 0.00 85 1012.7
20260505115152 52 324 0.0 2.0 0.00 0.00 0.00 85 1012.8
20260505114655 52 324 0.0 2.0 0.00 0.00 0.00 85 1012.7
20260505113926 52 324 0.0 3.0 0.00 0.00 0.00 85 1012.8
20260505113425 52 323 1.0 3.0 0.00 0.00 0.00 85 1012.7
20260505112923 52 324 1.0 3.0 0.00 0.00 0.00 85 1012.8
20260505112421 52 324 2.0 4.0 0.00 0.00 0.00 85 1012.8
20260505112140 52 326 2.0 4.0 0.00 0.00 0.00 84 1012.8
20260505111418 52 324 2.0 3.0 0.00 0.00 0.00 84 1012.7
20260505110916 52 326 0.0 4.0 0.00 0.00 0.00 84 1012.6
20260505110413 52 327 0.0 5.0 0.00 0.00 0.00 84 1012.7
20260505101905 53 313 2.0 6.0 0.00 0.00 0.00 84 1012.6
20260505101404 53 320 2.0 6.0 0.00 0.00 0.00 84 1012.7
20260505100904 53 305 2.0 6.0 0.00 0.00 0.00 83 1012.7
20260505100404 53 299 2.0 9.0 0.00 0.00 0.00 83 1012.9
20260505095904 53 299 4.0 9.0 0.00 0.00 0.00 83 1012.9
20260505095403 53 310 5.0 7.0 0.00 0.00 0.00 83 1012.8
20260505095112 53 299 4.0 6.0 0.00 0.00 0.00 83 1012.7
20260505095057 53 307 3.0 6.0 0.00 0.00 0.00 83 1012.9
20260505093904 53 329 3.0 7.0 0.00 0.00 0.00 83 1012.8
20260505093404 53 300 4.0 7.0 0.00 0.00 0.00 83 1012.7
20260505093346 53 278 2.0 5.0 0.00 0.00 0.00 83 1012.9
20260505092406 53 296 1.0 3.0 0.00 0.00 0.00 83 1013.0
20260505091903 53 296 2.0 3.0 0.00 0.00 0.00 83 1013.0
20260505091404 53 289 0.0 2.0 0.00 0.00 0.00 83 1012.9
20260505090905 53 289 0.0 3.0 0.00 0.00 0.00 83 1012.9
20260505090623 53 289 1.0 3.0 0.00 0.00 0.00 82 1012.9
20260505085900 53 286 1.0 4.0 0.00 0.00 0.00 82 1013.1
20260505085401 53 286 1.0 5.0 0.00 0.00 0.00 82 1013.1
20260505084859 54 288 2.0 5.0 0.00 0.00 0.00 82 1013.2
20260505084401 54 285 3.0 5.0 0.00 0.00 0.00 82 1013.2
20260505083858 54 293 2.0 6.0 0.00 0.00 0.00 82 1013.2
20260505083623 54 299 2.0 7.0 0.00 0.00 0.00 82 1013.3
20260505082854 54 300 3.0 9.0 0.00 0.00 0.00 81 1013.3
20260505082621 54 312 5.0 9.0 0.00 0.00 0.00 81 1013.5
20260505081853 54 299 5.0 9.0 0.00 0.00 0.00 80 1013.5
20260505081351 54 305 5.0 7.0 0.00 0.00 0.00 80 1013.6
20260505080852 54 317 3.0 7.0 0.00 0.00 0.00 80 1013.5
20260505080351 54 307 4.0 9.0 0.00 0.00 0.00 80 1013.4
20260505080113 54 295 6.0 9.0 0.00 0.00 0.00 80 1013.6
20260505075349 54 314 3.0 7.0 0.00 0.00 0.00 80 1013.5
20260505074848 54 309 4.0 7.0 0.00 0.00 0.00 80 1013.6
20260505074557 54 310 4.0 6.0 0.00 0.00 0.00 80 1013.5
20260505074542 54 290 3.0 6.0 0.00 0.00 0.00 80 1013.6
20260505073344 54 319 5.0 6.0 0.00 0.00 0.00 80 1013.5
20260505073110 54 312 3.0 9.0 0.00 0.00 0.00 80 1013.5
20260505072342 54 310 4.0 10.0 0.00 0.00 0.00 80 1013.5
20260505071842 54 310 4.0 10.0 0.00 0.00 0.00 80 1013.4
20260505071341 54 327 4.0 9.0 0.00 0.00 0.00 80 1013.4
20260505070840 54 310 4.0 7.0 0.00 0.00 0.00 80 1013.3
20260505070338 54 314 4.0 7.0 0.00 0.00 0.00 80 1013.3
20260505065839 54 319 4.0 6.0 0.00 0.00 0.00 80 1013.3
20260505065558 54 295 4.0 5.0 0.00 0.00 0.00 80 1013.2
20260505065056 54 303 2.0 5.0 0.00 0.00 0.00 80 1013.2
20260505064335 54 321 2.0 5.0 0.00 0.00 0.00 80 1013.1
20260505063832 54 306 3.0 7.0 0.00 0.00 0.00 80 1013.3
20260505063330 54 330 4.0 7.0 0.00 0.00 0.00 80 1013.2
20260505062833 54 326 3.0 5.0 0.00 0.00 0.00 80 1013.2
20260505062332 54 331 3.0 5.0 0.00 0.00 0.00 80 1013.2
20260505061831 54 344 3.0 10.0 0.00 0.00 0.00 80 1013.3
20260505061555 55 323 3.0 10.0 0.00 0.00 0.00 80 1013.2
20260505060831 55 353 5.0 10.0 0.00 0.00 0.00 80 1013.1
20260505060331 55 321 4.0 10.0 0.00 0.00 0.00 80 1013.1
20260505055833 55 321 3.0 6.0 0.00 0.00 0.00 80 1013.0
20260505055335 55 313 4.0 6.0 0.00 0.00 0.00 79 1013.1
20260505054832 55 313 3.0 9.0 0.00 0.00 0.00 79 1013.2
20260505054333 55 341 4.0 9.0 0.00 0.00 0.00 79 1013.2
20260505054058 55 336 5.0 7.0 0.00 0.00 0.00 79 1013.2
20260505053333 55 341 3.0 7.0 0.00 0.00 0.00 79 1013.4
20260505052833 55 314 4.0 10.0 0.00 0.00 0.00 79 1013.3
20260505052556 55 337 5.0 10.0 0.00 0.00 0.00 79 1013.5
20260505051829 55 329 6.0 7.0 0.00 0.00 0.00 79 1013.5
20260505051329 55 344 4.0 9.0 0.00 0.00 0.00 80 1013.5
20260505050829 55 323 6.0 10.0 0.00 0.00 0.00 80 1013.6
20260505050330 55 326 3.0 10.0 0.00 0.00 0.00 80 1013.5
20260505041327 56 310 6.0 11.0 0.00 0.00 0.00 78 1013.0
20260505040830 56 319 5.0 10.0 0.00 0.00 0.00 77 1013.0
20260505040328 56 327 5.0 9.0 0.00 0.00 0.00 77 1013.0
20260505035829 56 323 4.0 12.0 0.00 0.00 0.00 77 1013.0
20260505035329 56 317 5.0 12.0 0.00 0.00 0.00 76 1012.9
20260505034829 57 321 5.0 9.0 0.00 0.00 0.00 76 1012.9
20260505034554 57 313 6.0 10.0 0.00 0.00 0.00 75 1012.8
20260505033828 57 343 6.0 10.0 0.00 0.00 0.00 75 1012.8
20260505033329 57 314 5.0 10.0 0.00 0.00 0.00 74 1012.6
20260505032830 57 338 6.0 10.0 0.00 0.00 0.00 73 1012.6
20260505032330 57 350 6.0 11.0 0.00 0.00 0.00 72 1012.5
20260505031827 57 350 6.0 11.0 0.00 0.00 0.00 72 1012.5
20260505031548 58 340 4.0 10.0 0.00 0.00 0.00 71 1012.4
20260505031048 58 323 3.0 10.0 0.00 0.00 0.00 70 1012.4
20260505030326 58 329 4.0 6.0 0.00 0.00 0.00 70 1012.4
20260505025828 58 321 3.0 5.0 0.00 0.00 0.00 69 1012.4
20260505025327 58 302 2.0 6.0 0.00 0.00 0.00 69 1012.5
20260505024827 58 313 3.0 7.0 0.00 0.00 0.00 68 1012.5
20260505024326 58 333 4.0 9.0 0.00 0.00 0.00 68 1012.6
20260505023826 58 316 6.0 9.0 0.00 0.00 0.00 67 1012.5
20260505023327 58 337 5.0 11.0 0.00 0.00 0.00 67 1012.5
20260505022827 58 331 5.0 13.0 0.00 0.00 0.00 66 1012.4
20260505022325 58 320 6.0 13.0 0.00 0.00 0.00 66 1012.5
20260505022319 59 330 8.0 12.0 0.00 0.00 0.00 66 1012.6
20260505021547 59 293 8.0 13.0 0.00 0.00 0.00 65 1012.4
20260505020826 59 320 5.0 13.0 0.00 0.00 0.00 65 1012.3
20260505020326 59 302 7.0 12.0 0.00 0.00 0.00 65 1012.5
20260505015825 59 312 6.0 14.0 0.00 0.00 0.00 65 1012.4
20260505015811 59 305 7.0 16.0 0.00 0.00 0.00 64 1012.3
20260505015046 60 303 8.0 16.0 0.00 0.00 0.00 63 1012.3
20260505014325 60 286 9.0 14.0 0.00 0.00 0.00 62 1012.4
20260505013827 60 348 8.0 14.0 0.00 0.00 0.00 61 1012.4
20260505013327 61 355 8.0 14.0 0.00 0.00 0.00 61 1012.4
20260505013055 61 345 7.0 14.0 0.00 0.00 0.00 61 1012.3
20260505012327 61 337 7.0 13.0 0.00 0.00 0.00 61 1012.4
20260505011825 61 305 6.0 14.0 0.00 0.00 0.00 61 1012.4
20260505011324 62 314 8.0 15.0 0.00 0.00 0.00 61 1012.6